Tracking 18945 objects as of 19-Jan-2018
HD Live streaming from Space Station
objects crossing your sky now

FENGYUN 1C DEB

Track FENGYUN 1C DEB now!
10-day predictions


NORAD ID: 31252
Int'l Code: 1999-025BMJ
Perigee: 621.5 km
Apogee: 958.2 km
Inclination: 98.6 °
Period: 100.5 minutes
Semi major axis: 7160 km
RCS: 0.0178 m2 (small)
Launch date: May 10, 1999
Source: People's Republic of China (PRC)
Launch site: Taiyaun Space Center, China (TSC)

Note: This is SATELLITE DEBRIS
aabbcc
Your satellite tracking list
Your tracking list is empty




NASA's NSSDC Master Catalog

Two Line Element Set (TLE):
1 31252U 99025BMJ 18018.87606173  .00000199  00000-0  67425-4 0  9991
2 31252  98.6368  54.8651 0235143 112.1853 250.4462 14.32705958564151
Source of the keplerian elements: AFSPC